Wind_Speed
32 27 23 24 24 26 27 28 27 24 23 22 23 23 22 22 20 19 19 18 18 18 17 18 19 18 17 17 17 17 17 17 17 18 18 18 19 19 20 20 20 21 21 21
35 31 26 25 25 24 26 28 28 27 25 24 24 25 26 25 22 21 21 21 20 20 19 20 20 20 20 20 20 20 19 18 18 19 19 20 20 21 21 21 21 21 21 22
35 32 29 30 27 26 27 28 28 28 28 29 29 28 28 28 27 25 23 23 23 22 22 22 22 21 21 21 21 20 19 19 20 20 20 21 21 22 22 23 22 22 22 22
34 32 34 31 28 28 29 28 29 30 31 32 32 32 31 29 28 26 26 26 25 24 24 23 23 23 22 22 22 21 21 21 21 21 21 23 23 23 23 23 23 23 23 23
33 32 32 32 31 30 31 32 32 32 33 32 32 32 33 32 29 29 29 29 27 26 26 26 25 24 24 23 23 23 23 23 23 23 23 24 24 24 24 23 24 24 24 24
35 33 31 32 31 32 32 35 35 35 35 34 34 34 36 36 33 32 31 30 28 28 28 28 27 26 26 25 24 24 24 24 24 24 25 25 25 25 25 25 25 25 25 25
34 33 33 32 31 31 32 35 34 34 35 36 36 36 36 36 36 34 32 31 30 29 30 29 29 29 28 28 27 27 27 26 26 26 26 26 27 26 26 27 27 27 27 26
35 34 33 33 33 35 35 34 34 35 35 35 36 36 37 37 36 34 33 32 32 31 31 31 30 30 30 31 30 30 30 29 28 28 28 28 28 28 28 28 29 29 28 27
35 36 36 36 37 37 37 36 35 35 35 35 36 36 37 37 36 35 35 33 33 32 32 32 32 32 32 32 32 32 32 31 31 31 30 30 30 30 29 29 29 29 28 27
38 38 37 36 37 36 37 37 37 36 36 36 36 36 36 36 36 35 35 35 34 35 35 35 34 34 32 32 33 33 33 33 33 32 32 32 32 32 31 31 31 30 29 28
39 38 37 36 37 37 37 38 37 36 37 37 37 37 37 37 37 36 36 36 37 37 36 35 35 35 33 33 33 34 34 34 33 33 33 33 33 33 32 31 31 31 31 31
40 40 39 39 39 37 38 37 37 36 36 35 36 37 36 37 37 37 37 37 37 37 36 36 35 35 35 35 35 35 34 34 34 34 35 34 34 33 32 32 32 32 32 32
40 40 40 39 38 38 38 38 37 37 36 36 37 37 36 36 36 36 36 37 38 37 37 37 36 36 36 35 35 35 35 35 35 35 35 35 35 34 33 33 33 33 32 32
38 38 38 40 39 38 38 38 38 37 37 37 38 38 37 36 36 35 36 36 37 37 37 37 37 36 36 36 35 35 35 35 35 35 35 35 34 34 34 34 33 33 32 32
36 36 37 38 38 38 38 38 38 37 37 37 38 38 38 38 37 37 36 36 36 36 36 37 37 37 37 37 37 36 36 36 36 35 35 34 34 35 34 34 34 34 33 32
34 36 36 36 36 37 38 38 37 37 37 37 37 38 38 38 37 37 37 37 37 36 37 37 37 37 37 37 37 36 36 36 36 36 35 35 34 35 35 34 34 34 34 33
34 34 35 35 35 36 36 36 36 36 36 35 36 37 37 37 37 37 37 36 36 36 36 36 36 36 35 36 36 37 37 37 37 37 36 35 35 35 35 35 35 34 34 34
33 34 34 34 34 34 34 34 35 35 35 34 34 34 35 36 36 35 35 34 35 35 35 36 35 35 35 35 35 35 35 36 36 35 35 35 35 35 36 37 36 34 34 34
32 32 33 33 33 33 34 34 35 34 34 34 34 34 34 34 34 35 35 35 35 35 35 35 35 35 34 34 34 35 35 36 36 36 36 36 35 36 36 37 36 35 35 34
29 30 30 31 32 33 33 32 33 33 33 33 33 33 33 33 33 33 33 33 33 33 33 33 32 32 32 32 33 34 35 36 36 35 36 36 35 35 35 35 36 35 35 34
26 27 28 29 30 30 30 31 31 32 32 32 31 31 30 30 30 31 31 32 31 32 31 31 31 31 31 31 32 33 33 34 33 33 33 32 33 33 33 33 33 32 32 33
24 24 25 26 27 27 28 27 27 27 27 28 28 28 28 28 28 29 30 31 30 31 31 30 30 29 29 30 31 31 31 31 31 31 31 31 32 32 31 32 32 31 32 32
21 22 22 23 23 23 24 23 24 24 24 24 24 25 26 26 26 26 27 28 29 29 29 29 30 30 30 30 30 30 30 30 31 31 31 31 31 31 31 32 32 31 32 32
19 19 19 19 19 19 20 21 21 22 22 22 23 22 22 23 23 24 25 27 27 28 28 29 29 29 29 29 29 29 29 29 30 30 31 31 32 32 32 31 31 31 31 31
18 18 18 18 18 17 17 17 19 20 20 20 20 21 22 22 23 23 24 25 25 25 26 26 27 27 27 27 27 28 28 28 29 29 30 31 31 31 31 31 31 31 31 32
16 16 17 16 16 16 16 17 18 18 17 17 18 19 20 20 21 22 23 22 22 23 23 23 24 24 25 26 26 26 26 27 27 28 29 30 29 29 30 31 31 31 31 31
13 14 15 15 15 16 16 16 17 16 16 16 16 17 17 18 19 19 19 19 20 21 21 22 23 23 24 25 25 26 27 27 27 28 28 29 29 30 30 30 30 30 31 31
Wind_Direction
218 219 226 232 235 232 229 230 237 241 246 250 255 256 253 255 257 263 268 273 274 273 277 280 284 288 290 293 298 300 306 307 310 314 317 319 321 323 326 327 328 328 328 327
221 219 225 230 232 233 233 231 234 238 241 244 245 252 257 258 258 259 264 268 272 273 275 279 281 283 286 291 296 298 301 302 304 308 310 312 314 317 320 322 323 323 324 324
225 223 226 230 230 233 235 233 234 236 238 244 245 250 255 260 262 262 262 265 270 273 274 276 278 282 285 287 291 294 297 298 301 304 306 308 310 312 315 318 320 321 321 322
227 224 228 230 229 232 235 234 235 237 240 242 247 251 255 258 259 260 261 263 266 269 272 275 276 279 281 284 286 289 291 293 297 300 301 302 304 307 311 314 316 318 320 321
227 229 233 234 231 232 234 236 234 236 240 245 249 253 256 257 257 259 260 262 264 265 267 270 271 274 277 280 283 286 287 289 292 294 296 297 299 303 306 309 313 315 317 319
228 228 231 234 236 237 238 240 239 239 241 244 247 251 256 259 258 259 261 263 264 264 264 267 268 270 273 277 279 281 284 286 288 291 295 297 300 299 301 305 308 310 312 313
229 230 234 235 237 240 240 242 244 244 245 246 247 249 254 258 261 261 261 262 261 262 263 265 268 267 268 271 274 277 280 282 284 288 292 295 298 299 300 303 304 305 306 308
229 230 234 236 238 240 243 246 248 248 250 251 251 251 253 256 258 261 262 261 259 260 262 264 266 268 268 270 271 274 277 280 282 284 288 292 295 296 297 298 301 302 303 305
230 231 235 237 239 242 245 248 249 252 253 253 253 254 255 256 257 259 260 259 258 258 261 263 265 267 268 269 269 272 275 277 279 282 285 288 291 292 292 293 296 299 301 303
233 233 237 241 243 245 248 251 253 254 254 254 255 256 257 257 257 257 257 257 258 259 260 261 262 265 266 267 269 271 273 275 277 279 282 284 286 287 288 289 292 295 297 298
235 237 241 243 245 248 251 252 252 254 255 255 255 256 257 258 258 258 258 258 259 260 260 261 261 263 264 267 269 271 272 273 275 277 280 282 283 284 286 287 290 292 294 294
237 240 244 246 247 249 251 252 252 253 254 256 257 258 257 257 259 259 259 259 260 261 262 262 263 263 264 266 269 270 271 274 274 276 278 279 281 283 285 286 289 291 292 292
239 242 245 247 250 250 252 253 253 253 254 255 256 258 258 259 260 260 260 260 261 262 263 263 264 265 264 265 268 269 270 272 273 276 278 280 281 282 284 286 288 289 289 289
241 243 244 246 249 251 252 253 254 254 254 255 256 258 259 260 260 261 261 261 261 262 262 262 263 265 265 265 267 269 269 271 273 275 276 277 279 280 282 284 286 287 286 286
243 245 247 248 250 252 253 253 253 254 255 256 257 258 258 259 259 260 261 261 262 262 261 262 263 264 266 267 266 268 269 270 272 272 272 274 276 278 280 282 284 285 284 283
245 246 248 250 251 252 253 253 254 255 256 256 256 256 257 258 258 259 261 263 263 262 262 262 263 265 266 267 267 267 268 270 270 271 272 274 276 278 279 281 283 284 283 282
247 247 248 249 250 251 253 254 256 255 256 256 256 256 257 257 257 258 260 261 261 262 262 263 264 265 266 267 268 268 268 269 271 271 273 274 276 277 278 281 283 283 281 280
247 247 248 250 251 251 253 255 256 256 255 255 256 257 257 257 258 258 259 260 261 261 263 265 265 265 265 267 268 269 269 270 271 271 272 273 275 276 277 280 280 280 279 279
247 247 249 251 252 254 255 256 256 257 257 256 257 257 256 257 257 257 258 260 262 262 263 264 265 266 266 268 269 269 269 271 271 270 271 273 275 276 278 279 277 277 278 279
248 248 249 252 253 254 254 255 256 256 256 256 257 257 256 256 257 257 257 259 261 262 263 264 265 267 268 269 270 270 270 270 271 271 272 273 275 278 278 278 276 276 277 278
251 251 252 252 252 253 254 255 256 255 254 254 256 256 256 256 256 256 257 259 260 260 263 264 266 268 268 270 272 272 272 270 271 273 274 274 276 277 279 280 279 276 276 277
255 253 252 252 252 252 253 255 253 251 252 254 255 254 254 255 255 256 257 259 261 262 263 266 268 268 270 272 273 273 272 272 272 273 275 276 276 278 278 279 280 279 279 279
253 250 249 249 250 250 251 252 251 251 253 255 254 255 257 257 258 259 259 260 263 265 266 268 269 270 272 272 273 273 273 273 272 273 275 276 276 278 280 280 281 280 280 282
250 247 246 245 246 248 249 248 250 250 250 251 253 257 258 258 259 260 263 263 265 267 268 269 269 271 272 272 272 274 274 274 275 275 276 276 276 279 280 280 280 280 280 283
246 245 244 243 242 245 245 246 249 251 251 251 251 253 255 258 261 263 265 266 268 270 271 270 270 271 271 273 274 275 276 276 276 276 277 278 277 277 279 280 281 282 283 285
243 245 245 244 244 244 245 248 250 251 252 254 254 256 260 263 264 264 265 266 268 270 272 273 273 274 274 275 276 277 277 277 277 278 278 279 279 280 282 283 283 284 284 286
243 244 242 242 241 243 247 250 251 252 254 256 260 262 264 265 263 263 264 264 268 271 273 275 278 279 280 280 279 278 278 278 278 278 279 280 281 282 282 282 282 283 283 284
Height
5872 5877 5881 5884 5887 5890 5893 5897 5900 5902 5904 5903 5903 5903 5903 5903 5904 5906 5906 5907 5908 5908 5908 5908 5908 5908 5907 5906 5905 5905 5904 5903 5902 5901 5899 5897 5895 5893 5890 5888 5885 5883 5880 5877
5864 5870 5874 5877 5881 5884 5887 5890 5893 5895 5897 5897 5896 5896 5897 5898 5899 5901 5902 5903 5903 5903 5904 5904 5904 5904 5904 5903 5902 5902 5901 5900 5899 5897 5896 5894 5892 5890 5888 5885 5882 5880 5877 5874
5857 5864 5867 5870 5875 5878 5880 5884 5886 5888 5891 5891 5891 5891 5892 5893 5895 5895 5897 5898 5899 5899 5900 5900 5900 5900 5899 5899 5898 5898 5897 5896 5895 5893 5892 5890 5888 5886 5884 5882 5879 5876 5874 5871
5850 5856 5858 5865 5868 5871 5873 5876 5879 5881 5883 5883 5884 5885 5885 5887 5889 5890 5892 5893 5894 5894 5894 5894 5894 5894 5895 5894 5894 5893 5892 5891 5890 5889 5888 5886 5884 5882 5880 5878 5875 5873 5870 5867
5843 5847 5852 5857 5860 5863 5865 5867 5870 5872 5874 5876 5877 5878 5878 5880 5882 5884 5885 5886 5887 5888 5888 5889 5889 5889 5889 5889 5888 5888 5887 5886 5885 5884 5883 5881 5879 5877 5876 5874 5871 5869 5866 5864
5835 5840 5844 5849 5852 5853 5857 5858 5860 5863 5866 5868 5870 5871 5871 5872 5874 5876 5878 5879 5880 5881 5882 5882 5882 5882 5883 5883 5882 5882 5881 5881 5880 5879 5877 5876 5874 5872 5871 5869 5867 5864 5862 5859
5827 5832 5836 5840 5842 5845 5849 5849 5851 5854 5857 5860 5861 5863 5863 5865 5866 5868 5870 5871 5872 5873 5874 5874 5875 5875 5875 5875 5875 5875 5875 5874 5874 5873 5871 5870 5868 5866 5865 5863 5861 5859 5857 5854
5820 5824 5830 5831 5834 5836 5838 5840 5843 5845 5848 5850 5852 5853 5855 5856 5857 5859 5861 5863 5864 5865 5866 5867 5867 5867 5867 5867 5868 5868 5867 5867 5867 5866 5865 5864 5862 5861 5859 5857 5855 5853 5851 5849
5813 5817 5819 5822 5824 5826 5829 5832 5834 5837 5839 5841 5842 5844 5846 5847 5849 5851 5852 5854 5855 5856 5857 5858 5859 5859 5859 5859 5859 5860 5860 5860 5859 5859 5858 5857 5855 5854 5852 5850 5848 5847 5845 5843
5803 5806 5809 5812 5815 5817 5820 5823 5825 5828 5830 5832 5833 5835 5836 5838 5840 5842 5843 5845 5846 5847 5848 5849 5850 5850 5850 5850 5850 5851 5851 5851 5851 5850 5849 5848 5847 5846 5845 5843 5841 5839 5837 5835
5793 5798 5800 5803 5806 5809 5811 5814 5816 5818 5820 5822 5823 5825 5827 5828 5830 5832 5834 5835 5836 5837 5838 5839 5840 5841 5842 5842 5842 5842 5842 5842 5842 5841 5841 5840 5839 5838 5837 5835 5834 5832 5830 5828
5785 5789 5792 5794 5798 5800 5802 5804 5806 5808 5810 5812 5813 5814 5816 5818 5820 5822 5824 5825 5826 5827 5828 5829 5831 5832 5832 5833 5833 5833 5833 5833 5833 5832 5832 5831 5830 5829 5828 5826 5825 5823 5822 5820
5775 5779 5782 5786 5788 5790 5792 5794 5796 5799 5801 5802 5803 5804 5805 5807 5809 5811 5813 5815 5816 5817 5818 5819 5820 5821 5822 5823 5823 5823 5823 5823 5823 5823 5822 5821 5821 5820 5819 5818 5816 5815 5813 5812
5766 5770 5773 5776 5777 5779 5781 5783 5786 5788 5790 5792 5793 5795 5796 5797 5799 5801 5803 5804 5805 5807 5808 5809 5810 5811 5812 5812 5812 5813 5813 5813 5813 5813 5812 5811 5811 5810 5810 5808 5807 5806 5804 5803
5758 5760 5763 5766 5767 5769 5771 5773 5775 5777 5779 5781 5783 5784 5786 5787 5789 5791 5792 5794 5795 5796 5797 5798 5800 5800 5801 5801 5802 5802 5802 5802 5802 5802 5802 5801 5801 5801 5800 5799 5797 5796 5795 5794
5748 5751 5754 5756 5758 5759 5761 5763 5764 5766 5768 5770 5771 5773 5774 5776 5778 5780 5782 5783 5784 5786 5787 5788 5789 5790 5790 5790 5791 5791 5791 5791 5791 5791 5791 5791 5791 5791 5790 5789 5788 5786 5785 5784
5739 5741 5744 5746 5748 5749 5751 5753 5754 5756 5757 5759 5760 5762 5763 5765 5767 5769 5771 5772 5773 5775 5776 5777 5778 5779 5779 5779 5779 5780 5780 5781 5781 5781 5781 5781 5780 5780 5779 5778 5777 5776 5775 5773
5730 5732 5734 5736 5738 5740 5741 5742 5744 5745 5747 5749 5750 5751 5753 5754 5756 5758 5760 5761 5763 5764 5765 5766 5767 5767 5768 5769 5769 5769 5769 5770 5770 5770 5770 5770 5770 5769 5768 5767 5766 5765 5764 5763
5720 5723 5725 5726 5728 5730 5731 5733 5734 5736 5737 5739 5741 5742 5743 5744 5745 5747 5749 5751 5752 5753 5755 5755 5756 5756 5757 5758 5759 5759 5759 5759 5760 5760 5759 5759 5759 5758 5757 5756 5754 5754 5753 5753
5712 5714 5716 5717 5718 5720 5721 5723 5724 5725 5727 5729 5730 5732 5733 5734 5735 5737 5739 5740 5742 5743 5743 5745 5746 5746 5747 5748 5748 5748 5748 5749 5749 5749 5748 5748 5748 5747 5746 5744 5743 5743 5742 5742
5704 5705 5706 5707 5708 5710 5711 5713 5714 5715 5717 5719 5721 5722 5724 5725 5726 5728 5729 5731 5733 5733 5734 5735 5737 5737 5738 5738 5738 5738 5738 5738 5738 5738 5737 5737 5737 5737 5736 5734 5732 5732 5732 5732
5696 5697 5698 5698 5699 5700 5702 5703 5704 5706 5709 5711 5712 5713 5715 5717 5718 5720 5721 5722 5723 5724 5725 5726 5728 5729 5729 5729 5728 5728 5728 5728 5728 5728 5727 5727 5727 5727 5726 5725 5724 5723 5722 5722
5689 5690 5690 5691 5692 5693 5694 5695 5697 5700 5702 5703 5705 5707 5708 5709 5710 5712 5713 5714 5715 5716 5717 5718 5719 5720 5720 5720 5719 5719 5719 5719 5719 5719 5718 5718 5718 5717 5716 5715 5714 5713 5713 5712
5682 5683 5685 5686 5686 5687 5688 5690 5692 5694 5695 5697 5699 5700 5701 5702 5703 5704 5706 5706 5707 5708 5709 5710 5710 5711 5711 5711 5710 5710 5710 5710 5710 5709 5709 5709 5708 5708 5707 5706 5705 5704 5703 5702
5677 5678 5680 5681 5683 5683 5684 5686 5687 5689 5690 5691 5693 5694 5695 5696 5697 5698 5699 5699 5700 5700 5701 5702 5702 5702 5702 5702 5702 5702 5701 5701 5701 5700 5700 5699 5698 5698 5697 5696 5695 5694 5693 5692
5673 5675 5676 5677 5679 5680 5681 5682 5684 5685 5686 5687 5688 5689 5690 5691 5691 5692 5692 5693 5693 5694 5694 5694 5694 5694 5694 5694 5694 5694 5693 5693 5692 5692 5691 5690 5689 5687 5687 5687 5686 5685 5684 5683
5670 5671 5673 5674 5675 5677 5678 5679 5680 5681 5682 5683 5684 5685 5685 5685 5685 5685 5686 5687 5687 5687 5688 5688 5688 5687 5687 5687 5686 5686 5685 5684 5684 5683 5682 5681 5680 5680 5679 5678 5677 5675 5674 5673